Regional Weather Roundup
Issued by NWS

Home | Current Version | Previous Version | Text Only | Print | Product List | Glossary On
Versions: 1 2 3 4 5 6 7 8 9 10 11 12 13 14 15 16 17 18 19 20 21 22 23 24 25 26 27 28 29 30 31 32 33 34 35 36 37 38 39 40 41 42 43 44 45 46 47 48 49 50
000
ASUS43 KFSD 110410
RWRSD

WEATHER ROUNDUP FOR SOUTH DAKOTA
NATIONAL WEATHER SERVICE SIOUX FALLS SD
1000 PM CST SUN DEC 10 2017

NOTE: "FAIR" INDICATES FEW OR NO CLOUDS BELOW 12,000 FEET WITH NO
SIGNIFICANT WEATHER AND/OR OBSTRUCTIONS TO VISIBILITY.


SDZ001>005-009-010-012>017-110500-
NORTHWEST AND NORTH CENTRAL SOUTH DAKOTA

CITY           SKY/WX    TMP DP  RH WIND       PRES   REMARKS
BUFFALO          N/A     45  16  31 W26       30.00S
FAITH            N/A     41  17  38 W18       30.02F
MOBRIDGE       CLOUDY    40  25  55 NW10      29.95R
$$

SDZ012>016-024>037-041>051-057-063-072>074-110500-
SOUTHWEST AND SOUTH CENTRAL SOUTH DAKOTA

CITY           SKY/WX    TMP DP  RH WIND       PRES   REMARKS
RAPID CTY ARPT CLOUDY    43   8  23 W9        30.12S
PIERRE         CLOUDY    44  22  41 W12       30.00F
CUSTER         CLOUDY    44   4  19 W10G18    30.17F
ELLSWORTH AFB  CLOUDY    47   8  20 W10       30.10F
PHILIP         PTCLDY    48  16  27 W9        30.06F
PINE RIDGE     PTCLDY    44  19  36 W5        30.18S
SPEARFISH      FAIR      50  10  20 W21G28    30.16R
WINNER         FAIR      42  19  39 W10       30.03F
$$

SDZ004>011-016>023-039-040-110500-
NORTHEAST SOUTH DAKOTA

CITY           SKY/WX    TMP DP  RH WIND       PRES   REMARKS
ABERDEEN       CLOUDY    34  29  82 SW6       29.92F WCI  29
WATERTOWN      CLOUDY    34  27  75 W8        29.93F WCI  27
SISSETON         N/A     40  28  62 W13       29.88F
$$

SDZ017-020-022-023-036>040-048>070-110500-
SOUTHEAST SOUTH DAKOTA

CITY           SKY/WX    TMP DP  RH WIND       PRES   REMARKS
SIOUX FALLS    CLOUDY    35  29  78 SW3       29.98F
HURON          PTCLDY    38  27  64 W7        29.96F
CHAMBERLAIN    CLOUDY    45  23  42 W9        30.00F
MITCHELL       PTCLDY    37  27  67 W7        30.00F
YANKTON        CLOUDY    35  25  66 W6        30.01F
$$

ABBREVIATIONS USED IN REMARKS
   TC - TEMPERATURE IN CELSIUS
  WCI - WIND CHILL INDEX
   HX - HEAT INDEX
  VSB - VISIBILITY





USA.gov is the U.S. government's official web portal to all federal, state and local government web resources and services.